Location: Asheville, NC
(35.6000°N, 82.5500°W)
Time: 15:17:11
(UTC-04:00)

Oscar 11 - Pass Details

Date: 10 March 2018
Orbit: 613 x 627 km, 97.6° (Epoch: 24 June)

Event Time Altitude Azimuth Distance (km) Brightness Sun altitude
Exits shadow 19:51:09 22° 139° (SE) 1,354 8.4 -16.6°
Maximum altitude 19:53:38 48° 75° (ENE) 801 7.2 -17.1°
Drops below altitude 10° 19:57:46 10° 0° (N) 1,973 9.7 -17.9°
Sets 20:00:00 0° 355° (N) 2,882 10.7 -18.4°
